Tracking 25405 objects as of 27-Jan-2022
HD Live streaming from Space Station
objects crossing your sky now

STARLINK-2505

Track STARLINK-2505 now!
10-day predictions
STARLINK-2505 is classified as:


NORAD ID: 48411
Int'l Code: 2021-038BL
Perigee: 552.9 km
Apogee: 555.7 km
Inclination: 53.1 °
Period: 95.6 minutes
Semi major axis: 6925 km
RCS: Unknown
Launch date: May 4, 2021
Source: United States (US)
Launch site: AIR FORCE EASTERN TEST RANGE (AFETR)
aabbcc
Your satellite tracking list
Your tracking list is empty




NASA's NSSDC Master Catalog

Two Line Element Set (TLE):
1 48411U 21038BL  22026.58334491 -.00021426  00000-0 -14233-2 0  9993
2 48411  53.0541 199.3228 0002068  85.2339 141.4380 15.06412294  3590
Source of the keplerian elements: AFSPC